Tracking 29892 objects as of 21-Nov-2024
HD Live streaming from Space Station
objects crossing your sky now

COSMOS 921 DEB

Track COSMOS 921 DEB now!
10-day predictions


NORAD ID: 39690
Int'l Code: 1977-055C
Perigee: 483.5 km
Apogee: 501.1 km
Inclination: 75.8 °
Period: 94.3 minutes
Semi major axis: 6863 km
RCS: Unknown
Launch date: June 24, 1977
Source: Commonwealth of Independent States (former USSR) (CIS)
Launch site: PLESETSK MISSILE AND SPACE COMPLEX (PKMTR)

Note: This is SATELLITE DEBRIS
Your satellite tracking list
Your tracking list is empty




NASA's NSSDC Master Catalog

Two Line Element Set (TLE):
1 39690U 77055C   24325.80470993  .00024512  00000-0  92461-3 0  9996
2 39690  75.8255 359.3514 0012840 235.9319 124.0674 15.26866771603853
Source of the keplerian elements: AFSPC